User: anonymous   Login
Location: Newark
(46.2350°N, 1.5859°E)
Time: 19:18:52
(UTC+00:00)
Language:

BEESAT 2 - Orbit

View from above orbital plane
View from above orbital plane
View from above satellite
View from above satellite

Ground track
Ground track

The orbit data is extracted from the following two-line orbital elements,

1 39136U 13015G   19316.92286424 +.00001164 +00000-0 +67821-4 0  9999
2 39136 064.8681 287.9752 0030199 289.3621 070.4241 15.17138185362111
Epoch (UTC): 12 November 2019 22:08:55
Eccentricity: 0.0030199
inclination: 64.8681°
perigee height: 493 km
apogee height: 535 km
right ascension of ascending node: 287.9752°
argument of perigee: 289.3621°
revolutions per day: 15.17138185
mean anomaly at epoch: 70.4241°
orbit number at epoch: 36211

The dashed part of the orbit path shows where the satellite is in the earth's shadow,  

DLR